Probability
10 12 13 13 13 14 16 18 16 10 7 7 7 5 2 1 0 0 0 0 1 4 7 7 5 3 3 3 2 1 0 0 0 0 0 0 0 0 0 0 0 0 0
11 12 14 14 13 15 16 16 14 11 8 7 5 3 1 0 0 0 0 0 1 3 6 6 5 3 3 3 3 2 1 1 1 0 0 0 0 0 0 0 0 0 0
11 12 13 14 14 15 15 13 12 10 8 6 4 2 1 0 0 0 0 0 1 3 4 5 5 4 3 3 3 4 4 4 2 1 0 0 0 0 0 0 0 0 0
8 9 10 12 14 15 13 10 9 9 7 5 3 3 2 0 0 0 0 1 1 2 3 4 4 3 3 2 2 4 5 5 3 1 0 0 0 0 0 0 0 1 1
5 6 8 9 12 13 12 9 8 7 6 4 3 3 1 0 0 0 0 0 0 1 2 3 3 3 2 1 1 2 3 4 3 1 0 0 0 0 0 0 0 1 2
2 3 5 7 9 11 11 9 7 6 5 4 3 2 1 0 0 0 0 0 0 0 1 2 3 3 3 1 0 0 1 1 1 1 0 0 0 0 0 0 0 1 2
1 1 3 6 8 10 10 8 6 4 4 3 3 1 0 0 0 0 0 0 0 0 1 2 3 3 3 2 1 1 1 1 1 1 0 0 0 0 0 0 0 0 1
0 0 2 6 9 10 9 7 5 3 3 3 2 1 0 0 0 0 0 0 0 0 0 1 3 3 3 2 1 1 2 2 3 2 1 0 0 0 0 0 0 0 0
0 0 1 5 8 9 9 7 4 3 3 2 1 0 0 0 0 0 0 0 0 0 0 1 2 3 3 1 0 0 1 2 2 2 2 1 0 0 0 0 0 0 0
0 1 2 5 7 9 8 6 3 2 2 1 0 0 0 0 0 0 0 0 0 0 0 0 1 2 2 1 0 0 1 1 1 1 2 2 1 1 0 0 0 0 0
1 3 4 5 8 9 8 5 2 2 1 0 0 0 0 0 0 0 0 0 0 0 0 0 0 1 1 0 0 0 0 0 0 0 1 1 2 2 1 0 0 0 0
4 4 6 7 8 8 7 5 2 1 1 0 0 0 0 0 0 0 0 0 0 0 0 0 0 0 0 0 0 0 0 0 0 0 0 0 1 2 1 0 0 0 0
6 6 7 7 6 5 5 3 2 1 0 0 0 0 0 0 0 0 0 0 0 0 0 0 0 0 0 0 0 0 1 0 0 0 0 1 2 1 0 0 0 0 0
6 7 7 6 4 2 1 1 1 0 0 0 0 0 0 0 0 0 0 0 0 0 0 0 0 0 0 0 0 0 0 0 0 0 0 2 2 1 0 0 0 0 0
4 5 5 5 4 2 1 0 0 0 0 0 0 0 0 0 0 0 0 0 0 0 0 0 0 0 0 0 0 0 0 0 0 0 0 1 2 1 1 1 0 0 1
1 2 3 4 5 4 3 2 1 0 0 0 0 0 0 0 0 0 0 0 0 0 0 0 0 0 0 0 0 0 0 0 0 0 0 0 1 1 0 0 0 0 1
0 1 2 4 5 5 5 4 3 1 1 0 0 0 0 0 0 0 0 0 0 0 0 0 0 0 0 0 0 0 0 0 0 0 0 0 0 0 0 0 0 0 1
1 1 2 3 4 4 4 5 4 3 2 1 1 1 0 0 0 0 1 1 1 0 0 0 0 0 0 0 0 0 0 0 0 0 0 0 0 0 0 0 0 0 0
2 2 2 3 2 2 4 5 5 4 3 3 2 2 1 1 1 1 2 2 2 1 0 0 0 0 0 0 0 0 0 0 0 0 0 0 0 0 0 0 0 0 0
3 3 3 2 1 2 4 5 5 5 4 3 3 3 3 2 2 3 3 3 2 1 0 0 0 0 0 0 0 0 0 0 0 0 0 0 0 0 0 0 0 0 0
5 6 5 3 1 2 4 5 5 4 3 3 3 3 3 3 3 3 3 2 1 1 0 0 0 0 0 0 0 0 0 0 0 0 0 0 0 0 0 0 0 0 0
7 7 6 4 2 2 4 3 3 3 2 2 2 2 2 2 2 2 2 1 0 0 0 0 0 0 0 0 0 0 0 0 0 0 0 0 0 0 0 0 0 0 0
6 5 4 3 2 2 3 2 1 1 1 1 1 1 1 1 1 1 1 0 0 0 0 0 0 0 0 0 0 0 0 0 0 0 0 0 0 0 0 0 0 0 0
2 1 1 1 1 1 2 1 1 0 0 0 0 0 0 0 0 0 0 0 0 0 0 0 0 0 0 0 0 0 0 0 0 0 0 0 0 0 0 0 0 0 0
0 0 0 0 0 0 1 1 1 1 1 1 1 1 0 0 0 0 0 0 0 0 0 0 0 0 0 0 0 0 0 0 0 0 0 0 0 0 0 0 0 0 0
0 0 0 0 0 0 0 0 1 2 2 2 2 2 1 0 0 0 0 0 0 0 0 0 0 0 0 0 0 0 0 0 0 0 0 0 0 0 0 0 0 0 0
Wind_Speed
4 4 5 5 5 5 5 5 4 3 2 2 2 2 1 0 0 1 1 1 1 1 2 2 2 2 2 2 2 1 1 0 0 1 2 3 2 1 2 2 2 3 3
5 4 5 4 5 5 5 5 5 4 3 2 2 2 2 1 1 1 0 1 1 1 1 2 2 2 2 1 1 2 1 1 1 2 1 2 4 3 2 1 2 3 2
7 6 5 5 5 5 6 5 4 4 3 2 2 2 1 1 1 1 1 1 1 1 1 2 2 2 3 2 2 2 3 1 1 2 3 2 2 2 3 2 1 1 1
6 5 5 5 5 5 4 4 4 3 3 3 3 3 2 1 2 2 2 1 1 2 2 2 2 2 2 2 3 3 3 3 1 1 1 3 3 2 2 3 2 2 2
6 6 5 5 4 4 4 4 3 3 2 3 3 3 2 2 1 1 1 1 1 1 2 2 2 2 2 3 3 2 3 3 3 2 1 1 1 2 2 2 3 2 2
5 4 3 3 3 3 3 3 3 2 1 2 2 3 3 2 1 1 1 1 1 1 1 2 2 2 2 2 3 3 3 3 3 2 2 2 2 3 3 3 3 3 3
5 5 5 4 4 4 4 3 3 2 2 2 2 2 3 3 3 3 2 2 1 1 2 2 2 2 2 2 3 3 3 3 3 3 2 2 3 3 3 3 2 2 3
5 5 6 6 5 5 4 3 3 3 3 2 2 2 2 2 2 2 3 3 2 2 2 2 3 3 3 2 2 2 3 3 3 3 3 2 3 3 3 3 3 1 2
5 5 6 6 6 5 5 4 4 3 2 3 2 2 2 2 2 2 2 2 2 2 2 2 2 2 2 2 2 1 2 2 2 2 3 2 3 3 3 3 3 3 2
5 5 6 6 5 5 4 4 4 3 3 2 2 2 2 2 2 1 2 2 2 2 1 2 2 2 2 2 2 1 1 1 2 2 2 2 2 2 2 2 2 3 4
6 5 5 5 4 4 4 4 3 2 2 2 2 2 2 2 2 2 2 2 2 2 2 2 2 2 2 2 2 2 2 2 1 1 2 2 1 1 1 1 1 2 3
6 5 5 4 3 3 3 3 3 3 3 2 2 2 2 2 1 2 2 2 2 2 2 2 2 2 2 2 2 2 2 2 2 2 1 2 1 1 1 1 1 2 2
5 5 4 4 4 3 3 3 3 3 3 3 3 2 2 2 2 2 2 2 2 2 2 2 2 2 2 2 2 2 2 2 3 2 2 2 2 1 1 1 1 1 1
5 5 4 4 3 3 4 3 3 3 3 3 3 3 3 3 3 3 2 2 2 2 2 2 2 3 2 2 2 2 2 2 2 2 3 3 3 3 2 2 2 1 1
5 6 5 4 4 3 3 3 3 3 3 3 3 3 3 3 3 3 3 3 2 3 3 2 2 2 2 2 2 3 3 3 2 2 2 3 3 4 3 2 2 2 2
6 7 6 5 4 4 4 3 3 3 3 3 3 3 3 3 3 3 3 3 3 3 2 2 2 2 2 3 4 3 2 2 3 2 2 2 2 3 3 3 3 4 3
6 7 7 6 5 5 5 4 4 3 3 3 3 3 3 3 3 4 3 3 4 3 2 2 2 2 3 3 3 4 3 3 3 3 2 2 2 2 2 3 3 3 4
6 6 5 5 4 4 3 3 3 4 4 3 3 3 3 4 3 3 4 4 3 3 3 3 3 3 3 4 3 3 2 2 2 3 3 3 3 3 2 2 1 2 3
6 6 5 5 4 4 4 3 3 3 3 3 3 3 3 4 3 4 4 4 3 3 3 3 3 3 3 4 4 3 1 1 3 3 3 3 3 4 4 2 2 2 3
3 3 3 3 4 4 3 3 3 3 3 4 4 3 3 4 4 5 4 3 3 3 3 3 3 3 3 4 4 4 2 2 2 2 3 4 4 4 4 3 3 3 4
3 4 3 3 4 4 4 3 3 4 4 3 2 2 2 3 4 4 3 2 2 2 2 2 2 3 4 4 4 4 3 3 2 2 2 3 4 4 4 4 3 5 4
3 3 3 2 2 2 4 3 4 4 3 2 2 2 2 3 2 2 2 2 2 1 2 2 2 2 2 2 3 4 4 4 2 3 2 2 3 4 3 3 3 4 2
3 2 3 2 0 1 3 3 4 2 2 2 1 1 2 1 1 2 2 1 1 2 2 2 2 2 2 2 3 3 3 4 2 2 3 3 3 2 2 3 3 2 1
2 2 3 2 1 1 1 2 2 1 2 2 2 1 1 1 1 1 2 2 2 2 2 3 3 2 2 2 2 2 1 1 1 1 2 2 2 1 2 2 2 1 2
2 2 3 3 2 2 1 1 1 1 2 2 2 2 2 2 2 1 2 2 3 4 4 4 3 3 3 5 5 3 2 2 2 1 1 1 1 1 1 1 2 1 1
2 2 2 2 1 1 1 1 1 2 2 2 2 2 2 2 2 1 2 2 3 4 5 6 5 4 5 5 5 5 4 4 3 3 1 1 1 1 2 2 2 1 1
Wind_Direction
175 164 145 151 148 136 133 136 143 155 144 134 140 146 137 114 115 208 196 195 207 170 150 157 155 155 159 181 184 161 150 254 109 61 347 327 312 274 243 225 220 225 221
154 158 143 153 154 151 149 154 159 162 164 169 172 165 157 191 209 243 248 206 192 200 183 163 169 171 170 183 191 161 149 226 151 132 89 349 342 330 301 265 227 235 228
169 169 152 163 158 163 167 167 169 166 164 161 131 106 83 56 6 303 282 251 209 191 190 179 176 177 172 187 207 188 173 201 250 158 150 154 232 306 316 295 269 253 247
164 163 161 171 175 179 173 168 173 169 165 152 143 150 154 185 221 225 241 260 241 214 192 184 181 189 187 194 207 193 184 174 205 232 185 179 173 174 298 315 307 294 272
156 160 170 180 184 171 162 165 165 165 165 155 157 155 162 199 212 208 245 264 263 235 205 187 185 197 200 203 203 189 185 180 185 192 192 182 179 182 180 272 304 314 284
152 155 157 157 160 150 146 148 145 161 163 141 147 158 171 187 183 209 237 258 259 251 223 199 203 210 207 215 212 203 197 197 190 191 185 177 181 195 187 216 255 275 281
157 152 151 161 155 145 148 146 139 146 161 148 149 170 187 192 198 205 209 219 233 241 236 225 218 219 223 228 211 199 204 200 192 198 202 200 205 190 179 186 227 257 281
164 168 168 169 167 156 158 159 162 164 172 170 173 170 184 193 198 200 196 202 211 222 226 226 225 226 219 222 206 198 207 198 204 211 204 206 217 200 191 184 184 245 290
183 182 173 172 170 166 175 175 167 166 178 185 184 188 193 190 194 208 198 200 214 222 216 218 217 230 220 216 200 194 218 200 207 216 216 214 219 208 205 194 186 184 228
183 180 174 177 181 176 175 173 170 178 190 184 187 188 199 198 197 203 207 211 229 237 218 216 210 218 220 210 187 198 223 193 214 209 203 221 228 223 217 202 197 187 186
173 167 171 175 174 169 165 168 177 181 189 190 193 196 212 212 201 205 214 212 220 223 224 222 210 212 210 204 190 204 189 191 228 226 194 221 218 209 234 217 200 198 179
166 164 165 164 166 176 177 174 184 190 205 198 183 192 208 211 213 223 224 209 210 221 223 220 210 211 203 195 189 204 202 198 218 228 198 226 210 203 227 223 231 223 202
152 151 153 163 176 189 186 180 188 193 194 179 178 191 201 207 218 222 220 211 212 227 235 220 211 212 202 194 201 204 211 208 212 208 197 209 182 204 235 220 234 244 229
152 149 154 166 176 180 178 187 197 189 176 172 184 198 211 211 214 221 221 217 210 212 224 222 215 207 200 199 210 205 206 211 220 211 203 203 189 201 213 219 229 211 196
161 161 170 178 178 171 174 185 187 184 181 183 199 217 219 219 221 219 220 222 220 221 222 214 222 224 212 213 210 207 207 205 216 233 229 217 205 201 199 198 206 185 181
180 178 178 175 177 179 181 187 191 189 179 188 212 218 219 223 227 225 222 221 231 237 224 212 209 225 239 232 218 204 205 200 201 228 254 250 239 239 231 219 203 184 179
181 183 184 185 190 191 184 187 196 186 183 199 214 215 214 221 230 230 224 223 227 226 222 220 205 221 242 231 220 209 185 187 198 207 229 257 255 242 237 249 254 244 224
181 182 186 191 195 193 187 183 180 178 188 200 217 216 214 221 234 228 227 229 224 213 213 218 215 211 238 236 232 213 183 185 205 214 217 227 248 246 218 218 250 261 258
182 183 185 182 182 184 183 170 173 177 189 205 219 221 214 219 229 231 237 232 219 223 221 217 211 214 246 241 231 201 163 203 234 232 227 221 233 244 218 193 233 268 278
163 157 161 163 176 192 170 157 175 179 203 214 222 219 212 214 224 230 233 227 216 224 224 226 220 214 233 243 231 201 177 210 248 261 259 244 241 249 225 201 208 242 263
136 129 141 174 198 188 161 167 185 206 216 210 203 201 212 222 224 222 222 219 217 216 223 228 239 229 231 241 229 202 186 203 228 249 264 262 256 247 238 216 210 229 239
123 134 140 176 216 178 161 179 211 222 208 190 188 211 227 235 225 212 227 216 201 205 231 237 257 257 247 232 235 216 211 203 201 238 251 255 256 241 238 230 235 242 248
144 149 150 156 201 172 163 196 228 213 173 165 208 242 246 255 243 210 222 221 209 210 228 225 236 250 252 251 244 231 223 214 206 237 255 270 266 244 246 256 258 257 217
152 142 138 145 202 227 186 205 229 179 138 167 222 244 238 266 291 246 215 208 218 222 224 223 229 235 247 251 250 240 231 230 227 269 309 316 307 289 267 273 272 246 211
172 155 156 175 211 230 228 225 199 149 166 187 209 232 230 233 258 264 238 222 225 215 211 219 211 203 230 238 217 199 201 205 213 177 56 35 351 332 310 289 275 268 255
150 152 163 181 211 202 244 276 229 173 172 206 231 233 231 238 235 233 290 288 252 248 228 224 210 218 225 224 214 215 212 207 175 133 151 225 232 237 251 266 280 281 264